Knoxville, TN

12:01 AM EDT on September 20, 2019 (GMT -0400)
McGhee Tyson

Weather History for KTYS - July, 2019

Change the Weather History Date:

Sunday, July 14, 2019

  Actual Average Record
Temperature  
Mean Temperature 78 °F 79 °F  
Max Temperature 85 °F 88 °F 101 °F (1954)
Min Temperature 71 °F 69 °F 56 °F (1897)
Degree Days  
Heating Degree Days 0 0  
Month to date heating degree days 0 0  
Since 1 June heating degree days 0 4  
Since 1 July heating degree days 0 0  
Cooling Degree Days 13 14  
Month to date cooling degree days 225 186  
Year to date cooling degree days 804 653  
Since 1 June cooling degree days 504 491  
Growing Degree Days 28 (Base 50)    
Moisture  
Dew Point 69 °F    
Average Humidity 77    
Maximum Humidity 93    
Minimum Humidity 61    
Precipitation  
Precipitation 0.00 in 0.17 in 2.94 in (1990)
Month to date precipitation 1.18 2.33  
Year to date precipitation 40.40 27.58  
Snow  
Snow 0.00 in 0.00 in - ()
Month to date snowfall 0.0 0.0  
Since 1 June snowfall 0.0 0.0  
Since 1 July snowfall 0.0 0.0  
Snow Depth 0.00 in    
Sea Level Pressure  
Sea Level Pressure 30.15 in    
Wind  
Wind Speed 6 mph (SW)    
Max Wind Speed 20 mph    
Max Gust Speed 24 mph    
Visibility 10 miles    
Events Thunderstorm    
T = Trace of Precipitation, MM = Missing Value Source: NWS Daily Summary

Daily Weather History Graph

Daily Weather History Graph

Search for Another Location

Airport or City:

Astronomy

Jul. 14, 2019 Rise Set
Actual Time 6:30 AM EDT 8:52 PM EDT
Civil Twilight 6:01 AM EDT 9:22 PM EDT
Nautical Twilight 5:24 AM EDT 9:58 PM EDT
Astronomical Twilight 4:45 AM EDT 10:38 PM EDT
Moon 7:14 PM EDT (7/14) 4:30 AM EDT (7/14)
Length of Visible Light 15h 21m
Length of Day
14h 22m
Waxing Gibbous, 95% of the Moon is Illuminated
Jul 14
Waxing Gibbous
Jul 16
Full
Jul 24
Last Quarter
Jul 31
New
Aug 7
First Quarter

Hourly Weather History & Observations

Time (EDT) Temp. Heat Index Dew Point Humidity Pressure Visibility Wind Dir Wind Speed Gust Speed Precip Events Conditions
12:53 AM 73.0 °F - 69.1 °F 87% 30.12 in 10.0 mi SW 3.5 mph - 0.00 in   Overcast
1:53 AM 73.0 °F - 69.1 °F 87% 30.10 in 10.0 mi SW 8.1 mph - N/A   Scattered Clouds
2:53 AM 73.0 °F - 68.0 °F 84% 30.08 in 10.0 mi NW 5.8 mph - N/A   Scattered Clouds
3:53 AM 73.0 °F - 69.1 °F 87% 30.10 in 10.0 mi West 8.1 mph - N/A   Clear
4:53 AM 73.0 °F - 69.1 °F 87% 30.10 in 10.0 mi Calm Calm - N/A   Mostly Cloudy
5:53 AM 72.0 °F - 69.1 °F 91% 30.12 in 10.0 mi Calm Calm - N/A   Overcast
6:53 AM 72.0 °F - 68.0 °F 87% 30.14 in 10.0 mi Calm Calm - N/A   Overcast
7:53 AM 72.0 °F - 69.1 °F 91% 30.16 in 10.0 mi ENE 3.5 mph - N/A   Overcast
8:53 AM 75.9 °F - 70.0 °F 82% 30.18 in 10.0 mi Calm Calm - N/A   Overcast
9:53 AM 78.1 °F - 70.0 °F 76% 30.18 in 10.0 mi West 3.5 mph - N/A   Overcast
10:53 AM 81.0 °F 84.4 °F 70.0 °F 69% 30.19 in 10.0 mi West 6.9 mph - N/A   Overcast
11:53 AM 82.9 °F 85.8 °F 68.0 °F 60% 30.18 in 10.0 mi NW 11.5 mph - N/A   Overcast
12:53 PM 84.0 °F 87.8 °F 69.1 °F 61% 30.17 in 10.0 mi NNE 5.8 mph - N/A   Overcast
1:53 PM 84.9 °F 88.8 °F 69.1 °F 59% 30.15 in 10.0 mi North 6.9 mph - N/A   Overcast
1:57 PM 84.0 °F 87.8 °F 69.1 °F 61% 30.18 in 10.0 mi NNW 10.4 mph - N/A Thunderstorm Thunderstorm
2:26 PM 75.0 °F - 68.0 °F 79% 30.20 in 4.0 mi WSW 11.5 mph - N/A Thunderstorm Haze
2:36 PM 73.9 °F - 69.1 °F 85% 30.20 in 4.0 mi WSW 13.8 mph - N/A Thunderstorm Unknown
2:53 PM 75.9 °F - 68.0 °F 76% 30.17 in 4.0 mi SW 10.4 mph - N/A Thunderstorm Unknown
3:19 PM 75.9 °F - 68.0 °F 76% 30.19 in 10.0 mi SSE 6.9 mph - N/A Thunderstorm Mostly Cloudy
3:43 PM 75.9 °F - 68.0 °F 76% 30.19 in 10.0 mi South 6.9 mph - N/A   Mostly Cloudy
3:53 PM 75.9 °F - 69.1 °F 79% 30.17 in 10.0 mi South 10.4 mph - N/A   Overcast
4:53 PM 80.1 °F 83.2 °F 70.0 °F 71% 30.14 in 10.0 mi SSW 6.9 mph - N/A   Mostly Cloudy
5:53 PM 81.0 °F 84.4 °F 70.0 °F 69% 30.13 in 10.0 mi SW 8.1 mph - N/A   Mostly Cloudy
6:53 PM 81.0 °F 84.4 °F 70.0 °F 69% 30.11 in 10.0 mi South 8.1 mph - N/A   Mostly Cloudy
7:53 PM 80.1 °F 83.2 °F 70.0 °F 71% 30.12 in 10.0 mi SSE 4.6 mph - N/A   Mostly Cloudy
8:53 PM 78.1 °F - 70.0 °F 76% 30.11 in 10.0 mi South 4.6 mph - N/A   Mostly Cloudy
9:53 PM 77.0 °F - 70.0 °F 79% 30.13 in 10.0 mi WSW 4.6 mph - N/A   Mostly Cloudy
10:53 PM 73.9 °F - 70.0 °F 87% 30.15 in 10.0 mi SW 5.8 mph - N/A   Mostly Cloudy
11:53 PM 73.9 °F - 70.0 °F 87% 30.15 in 10.0 mi SW 4.6 mph - N/A   Scattered Clouds